Regional Weather Roundup
Issued by NWS Midland/Odessa, TX

Skip options and go directly to product.
Home | Oldest Version | Previous Version | Current Version | All | Text Only | Save Text | Print | Product List | Glossary On

Skip product version selection by date and time.   
428
ASUS44 KMAF 300010
RWRMAF
MIDLAND AREA WEATHER ROUNDUP
NATIONAL WEATHER SERVICE MIDLAND TX
700 PM CDT FRI AUG 29 2014

...IN SOUTHWEST TEXAS AND SOUTHEAST NEW MEXICO...

CITY           SKY/WX    TMP DP  RH WIND       PRES   REMARKS
ALPINE         SUNNY     88  42  20 N14       30.07S
ANDREWS        FAIR      88  59  37 E10       29.95S
ARTESIA        NOT AVBL
BIG SPRING     SUNNY     87  66  50 E10       29.93S
CARLSBAD       SUNNY     94  43  17 NW9       29.92S
DRYDEN         NOT AVBL
FORT STOCKTON  MOSUNNY   94  47  20 N6        29.89F
GUAD PASS      PTSUNNY   83  44  25 E10       30.10F
HOBBS          SUNNY     90  48  24 CALM      29.97S
MARFA          MOSUNNY   84  43  23 NE15      30.07R
MIDLAND AIRPK  SUNNY     91  62  36 NE8       29.92R
MIDLAND INTL   PTSUNNY   89  65  44 SE13      29.91R
ODESSA         SUNNY     90  62  39 SE10G21   29.92S
PECOS          SUNNY     95  45  18 NE7       29.86S
PRESIDIO       FAIR      98  43  15 N3        29.84R
SEMINOLE       SUNNY     87  56  34 E5        29.96F
SNYDER         PTSUNNY   87  66  49 E7        29.93R
WINK           MOSUNNY   95  58  28 E13       29.88R
$$
...OTHER STATIONS IN TEXAS...

CITY           SKY/WX    TMP DP  RH WIND       PRES   REMARKS
ABILENE        CLOUDY    84  67  56 E7        29.90S
AMARILLO       SUNNY     89  42  19 N7        29.98R
AUSTIN         CLOUDY    78  69  73 CALM      29.85S THUNDER
BROWNSVILLE    CLOUDY    84  79  85 E12       29.80R
CORPUS CHRISTI PTSUNNY   85  74  69 E10       29.79R
DALLAS FTW     PTSUNNY   86  68  54 SE15      29.85R
DEL RIO        SUNNY     98  64  32 SE8       29.76F HX 100
EL PASO        MOSUNNY   92  43  18 SW6       29.95F
HOUSTON INT    MOCLDY    81  72  74 SE14      29.87R
LUBBOCK        MOSUNNY   86  62  44 SE9       29.95S
SAN ANGELO     CLOUDY    81  65  58 S8        29.92R
SAN ANTONIO    PTSUNNY   93  66  40 E16       29.82R
WACO           PTSUNNY   90  69  50 SE17G24   29.83R
WICHITA FALLS  NOT AVBL
$$
...OTHER LOCATIONS IN NEW MEXICO...

CITY           SKY/WX    TMP DP  RH WIND       PRES   REMARKS
ALAMAGORDO     SUNNY     90  37  15 CALM      29.98F
ALBUQUERQUE    MOSUNNY   85  37  18 N3        30.09S
CANNON AFB     SUNNY     87  37  17 VRB6      30.02S
CLOVIS           N/A     88  36  15 NW7       30.03S
HOLLOMAN AFB   SUNNY     91  40  16 NW6       29.96F
ROSWELL        SUNNY     91  50  24 CALM      29.96F
RUIDOSO        MOSUNNY   73  45  35 SE10      30.22S
SANTA FE       SUNNY     80  36  20 W5        30.15S
TRUTH OR CONSE SUNNY     88  41  19 E6        30.02F
TUCUMCARI      SUNNY     89  27  10 W5        29.99S
$$

USA.gov is the U.S. government's official web portal to all federal, state and local government web resources and services.